Regional Weather Roundup
Issued by NWS

Home | Current Version | Previous Version | Text Only | Print | Product List | Glossary On
Versions: 1 2 3 4 5 6 7 8 9 10 11 12 13 14 15 16 17 18 19 20 21 22 23 24 25 26 27 28 29 30 31 32 33 34 35 36 37 38 39 40 41 42 43 44 45 46 47 48 49 50
374
ASUS42 KFFC 090003
RWRGA
WEATHER ROUNDUP FOR GEORGIA
NATIONAL WEATHER SERVICE PEACHTREE CITY GA
700 PM EST MON FEB 08 2016

NOTE: "FAIR" INDICATES FEW OR NO CLOUDS BELOW 12,000 FEET WITH NO
SIGNIFICANT WEATHER AND/OR OBSTRUCTIONS TO VISIBILITY.

* = USE WITH CAUTION. THE STATIONS MARKED WITH AN ASTERISK MAY NOT
REPORT WEATHER SUCH AS PRECIPITATION, FOG, OR THUNDER AND ARE NOT
QUALITY CONTROLLED BY NWS.

THE REMARK "TC" DENOTES TEMPERATURE READING IN DEGREES CELSIUS.

GAZ001>058-090100-
NORTH GEORGIA

CITY           SKY/WX    TMP DP  RH WIND       PRES   REMARKS
ATLANTA        PTCLDY    44  22  41 NW14      29.79R
6HR MIN TEMP:  44; 6HR MAX TEMP:  54;

ATHENS         CLEAR     45  22  40 W17G29    29.75R
6HR MIN TEMP:  45; 6HR MAX TEMP:  55; 6HR PCP: TRACE;

CHAMBLEE       CLOUDY    44  22  41 W15G29    29.78R
6HR MIN TEMP:  44; 6HR MAX TEMP:  54;

PEACHTREE CITY MOCLDY    46  21  37 NW9       29.81R
6HR MIN TEMP:  46; 6HR MAX TEMP:  53;

ROME           CLOUDY    43  24  47 W18       29.82R
6HR MIN TEMP:  43; 6HR MAX TEMP:  53;

WEST ATLANTA   CLOUDY    44  21  40 NW9       29.80R
6HR MIN TEMP:  44; 6HR MAX TEMP:  53;

GAINESVILLE    PTCLDY    41  20  43 W15G25    29.76R
6HR MIN TEMP:  41; 6HR MAX TEMP:  51;

CARTERSVILLE   CLOUDY    43  22  43 MISG      29.83R
6HR MIN TEMP:  43; 6HR MAX TEMP:  52;



CITY           SKY/WX    TMP DP  RH WIND       PRES   REMARKS
LAWRENCEVILLE* MOCLDY    45  19  36 W12G21    29.76S
MARIETTA       CLOUDY    43  22  43 W13       29.79R
KENNESAW*      MOCLDY    43  19  39 NW12G18   29.80S
BLAIRSVILLE*     N/A     38 -11  12 NW6       29.75R WCI  34
$$

GAZ059>098-102>109-090100-
CENTRAL GEORGIA

CITY           SKY/WX    TMP DP  RH WIND       PRES   REMARKS
AUGUSTA-BUSH   PTCLDY    46  33  60 N3        29.74R
6HR MIN TEMP:  46; 6HR MAX TEMP:  62; 6HR PCP: TRACE;

AUGUSTA-DANIEL CLEAR     48  33  56 VRB6      29.73S
6HR MIN TEMP:  48; 6HR MAX TEMP:  62; 6HR PCP: TRACE;

COLUMBUS       CLOUDY    49  20  31 NW18G25   29.82R
6HR MIN TEMP:  49; 6HR MAX TEMP:  54;

MACON          MOCLDY    45  34  65 W6        29.77S
6HR MIN TEMP:  45; 6HR MAX TEMP:  57; 6HR PCP: TRACE;

ROBINS AFB     PTCLDY    47  27  44 W13       29.77R


CITY           SKY/WX    TMP DP  RH WIND       PRES   REMARKS
LAGRANGE*      MOCLDY    49  30  47 NW13G24   29.82R
SYLVANIA*      LGT RAIN  48  47  94 NW6       29.76R
MILLEDGEVILLE* PTCLDY    43  36  75 CALM      29.76S
$$

GAZ099>101-110>166-090100-
SOUTH GEORGIA

CITY           SKY/WX    TMP DP  RH WIND       PRES   REMARKS
SAVANNAH       LGT RAIN  49  42  77 NW15G24   29.78R
6HR MIN TEMP:  49; 6HR MAX TEMP:  65; 6HR PCP:  0.01;

VALDOSTA       CLOUDY    52  42  69 VRB3      29.79R
6HR MIN TEMP:  52; 6HR MAX TEMP:  65; 6HR PCP: TRACE;

ALMA           CLOUDY    47  44  90 W3        29.77F
6HR MIN TEMP:  47; 6HR MAX TEMP:  63; 6HR PCP:  0.04;

ST SIMONS      CLEAR     57  42  57 SW16G24   29.72F
6HR MIN TEMP:  57; 6HR MAX TEMP:  63;

ALBANY         CLEAR     51  26  37 NW10      29.82R
HUNTER AFB     PTCLDY    49  46  88 NW16G23   29.74R
MOODY AFB      CLOUDY    49  43  79 SW5       29.78R
BRUNSWICK      CLOUDY    59  41  51 SW12G21   29.72F


CITY           SKY/WX    TMP DP  RH WIND       PRES   REMARKS
MOULTRIE*      DRIZZLE   52  41  66 W6        29.79R
VIDALIA*       CLOUDY    46  43  87 SW6       29.75S
WAYCROSS*      MOCLDY    50  48  94 N5        29.77F
DOUGLAS*       CLOUDY    50  43  76 CALM      29.77F
$$




USA.gov is the U.S. government's official web portal to all federal, state and local government web resources and services.